Latest Coastal Weather Observations for Willis Island

IDQ60701

Issued at 6:21 am EST Tuesday 7 July 2015 (issued every 10 minutes, with the page automatically refreshed every 10 minutes)

About coastal observations | Map of coastal stations | Coastal observations for QLD | Marine services | Other Formats
Station Details ID: 200283 Name: WILLIS ISLAND Lat: -16.29 Lon: 149.97 Height: 9.29 m
Data from the previous 72 hours. | See also: Recent months at Willis Island
Date/Time
EST
Temp

°C
Wind Pressure Rain
since 9am
mm
Weather Cloud Vis
km
Sea
Height
m
Swell
Dir
 
Speed
knots
Gust
knots
hPa Trend Height
m
Period
s
Dir
07/06:00am 23.5 SSE 16 18 1014.1 R 0.0 Distant precip. Mostly cloudy 30 1 0.8 9 E
07/05:30am 23.9 SSE 17 19 1013.8 - 0.0 - - - - - - -
07/05:00am 23.8 SSE 17 20 1013.6 - 0.0 - - - - - - -
07/04:30am 23.7 SSE 16 19 1013.3 - 0.0 - - - - - - -
07/04:00am 23.9 SSE 16 18 1013.1 - 0.0 - - - - - - -
07/03:30am 23.8 SSE 16 19 1013.3 - 0.0 - - - - - - -
07/03:00am 23.7 SSE 15 18 1013.3 - 0.0 - - - - - - -
07/02:30am 23.6 SSE 16 19 1013.5 - 0.0 - - - - - - -
07/02:00am 23.7 SSE 16 18 1013.6 - 0.0 - - - - - - -
07/01:30am 23.6 SSE 16 18 1013.9 - 0.0 - - - - - - -
07/01:00am 23.6 SSE 15 18 1014.1 - 0.0 - - - - - - -
07/12:30am 23.7 SSE 14 17 1014.5 - 0.0 - - - - - - -
07/12:00am 23.6 SSE 15 17 1014.8 - 0.0 - - - - - - -
 
Date/Time
EST
Temp

°C
Wind Pressure Rain
since 9am
mm
Weather Cloud Vis
km
Sea
Height
m
Swell
Dir
 
Speed
knots
Gust
knots
hPa Trend Height
m
Period
s
Dir
06/11:30pm 23.6 SSE 16 18 1014.9 - 0.0 - - - - - - -
06/11:00pm 23.6 SE 16 18 1015.0 - 0.0 - - - - - - -
06/10:30pm 23.5 SE 16 19 1015.1 - 0.0 - - - - - - -
06/10:00pm 23.8 SE 17 20 1015.3 - 0.0 - - - - - - -
06/09:30pm 23.7 SE 17 20 1015.4 - 0.0 - - - - - - -
06/09:00pm 23.7 SE 17 19 1015.3 F 0.0 Fine Mostly clear 30 1 - - -
06/08:30pm 23.7 SSE 17 20 1015.3 - 0.0 - - - - - - -
06/08:00pm 23.9 SE 17 20 1015.2 - 0.0 - - - - - - -
06/07:30pm 23.9 SE 17 21 1014.8 - 0.0 - - - - - - -
06/07:00pm 23.8 SE 17 20 1014.6 - 0.0 - - - - - - -
06/06:30pm 23.7 SE 17 20 1014.3 - 0.0 - - - - - - -
06/06:00pm 23.8 SE 17 19 1014.2 S 0.0 Fine Partly cloudy 30 1 0.7 7 SE
06/05:30pm 23.9 SE 16 21 1014.0 - 0.0 - - - - - - -
06/05:00pm 24.1 SE 16 19 1013.8 - 0.0 - - - - - - -
06/04:30pm 24.5 SE 17 21 1013.5 - 0.0 - - - - - - -
06/04:00pm 24.9 SE 17 21 1013.3 - 0.0 - - - - - - -
06/03:30pm 25.2 SE 18 21 1013.2 - 0.0 - - - - - - -
06/03:00pm 25.6 SE 18 21 1013.3 R 0.0 Fine Mostly cloudy 30 1 1.0 9 SE
06/02:30pm 25.6 SE 18 21 1013.5 - 0.0 - - - - - - -
06/02:00pm 26.0 SE 19 22 1013.7 - 0.0 - - - - - - -
06/01:30pm 25.8 SE 20 23 1013.8 - 0.0 - - - - - - -
06/01:00pm 25.8 SE 19 23 1014.2 - 0.0 - - - - - - -
06/12:30pm 25.8 SE 19 21 1014.6 - 0.0 - - - - - - -
06/12:00pm 26.4 SE 18 20 1014.9 F 0.0 Fine Partly cloudy 30 2 1.3 9 SE
06/11:30am 26.0 SE 18 22 1015.3 - 0.0 - - - - - - -
06/11:00am 25.4 SE 19 22 1015.6 - 0.0 - - - - - - -
06/10:30am 25.7 SE 19 23 1015.8 - 0.0 - - - - - - -
06/10:00am 25.0 SE 20 23 1016.1 - 0.0 - - - - - - -
06/09:30am 25.1 SE 20 23 1016.3 - 0.0 - - - - - - -
06/09:00am 25.6 SE 20 22 1016.3 R 0.0 Fine Mostly cloudy 30 1 1.0 9 SE
06/08:30am 24.5 SE 20 24 1016.2 - 0.0 - - - - - - -
06/08:00am 24.2 SE 21 23 1015.9 - 0.0 - - - - - - -
06/07:30am 23.9 SE 21 24 1015.6 - 0.0 - - - - - - -
06/07:00am 23.6 SE 21 24 1015.3 - 0.0 - - - - - - -
06/06:30am 23.6 ESE 21 24 1015.0 - 0.0 - - - - - - -
06/06:00am 23.6 ESE 20 24 1014.7 F 0.0 Distant precip. Mostly clear 30 1 1.0 5 SE
06/05:30am 23.6 SE 19 23 1014.5 - 0.0 - - - - - - -
06/05:00am 23.7 SE 19 22 1014.5 - 0.0 - - - - - - -
06/04:30am 23.6 SE 19 22 1014.4 - 0.0 - - - - - - -
06/04:00am 23.5 SE 18 21 1014.3 - 0.0 - - - - - - -
06/03:30am 23.6 SE 17 21 1014.3 - 0.0 - - - - - - -
06/03:00am 23.6 SE 18 21 1014.4 - 0.0 - - - - - - -
06/02:30am 23.6 SE 17 19 1014.4 - 0.0 - - - - - - -
06/02:00am 23.7 SE 19 21 1014.6 - 0.0 - - - - - - -
06/01:30am 23.9 SE 18 22 1014.9 - 0.0 - - - - - - -
06/01:00am 23.8 SE 17 21 1015.3 - 0.0 - - - - - - -
06/12:30am 23.7 SE 18 22 1015.6 - 0.0 - - - - - - -
06/12:00am 23.7 SE 19 21 1015.7 - 0.0 - - - - - - -
 
Date/Time
EST
Temp

°C
Wind Pressure Rain
since 9am
mm
Weather Cloud Vis
km
Sea
Height
m
Swell
Dir
 
Speed
knots
Gust
knots
hPa Trend Height
m
Period
s
Dir
05/11:30pm 23.6 SE 17 21 1015.8 - 0.0 - - - - - - -
05/11:00pm 23.5 SE 17 19 1016.0 - 0.0 - - - - - - -
05/10:30pm 23.6 SE 17 19 1016.2 - 0.0 - - - - - - -
05/10:00pm 23.6 SE 18 20 1016.3 - 0.0 - - - - - - -
05/09:30pm 23.7 SE 18 21 1016.2 - 0.0 - - - - - - -
05/09:00pm 23.7 SE 20 23 1016.3 F 0.0 Fine Mostly clear 30 1 - - -
05/08:30pm 23.8 SE 20 24 1016.2 - 0.0 - - - - - - -
05/08:00pm 23.7 SE 20 24 1016.1 - 0.0 - - - - - - -
05/07:30pm 23.8 SE 17 24 1015.9 - 0.0 - - - - - - -
05/07:00pm 23.8 SE 17 20 1015.6 - 0.0 - - - - - - -
05/06:35pm 23.3 ESE 20 22 1015.4 - 0.0 - - - - - - -
05/06:30pm 23.7 SE 19 22 1015.3 - 0.0 - - - - - - -
05/06:00pm 24.0 SE 19 22 1015.1 F 0.0 Distant precip. Mostly cloudy 30 1 1.0 8 SE
05/05:30pm 23.9 SE 19 22 1015.0 - 0.0 - - - - - - -
05/05:00pm 24.1 SE 18 21 1014.9 - 0.0 - - - - - - -
05/04:30pm 24.4 SE 17 21 1014.7 - 0.0 - - - - - - -
05/04:00pm 24.8 SE 17 20 1014.5 - 0.0 - - - - - - -
05/03:30pm 24.9 SE 17 20 1014.2 - 0.0 - - - - - - -
05/03:00pm 25.3 SE 18 21 1014.3 R 0.0 Fine Partly cloudy 35 2 1.5 8 SE
05/02:30pm 25.3 ESE 19 22 1014.2 - 0.0 - - - - - - -
05/02:00pm 25.6 SE 19 21 1014.3 - 0.0 - - - - - - -
05/01:30pm 25.9 ESE 18 22 1014.5 - 0.0 - - - - - - -
05/01:00pm 25.9 ESE 20 22 1014.9 - 0.0 - - - - - - -
05/12:30pm 25.7 ESE 19 24 1015.4 - 0.0 - - - - - - -
05/12:00pm 25.4 ESE 19 21 1015.9 S 0.0 Fine Mostly cloudy 30 2 1.5 6 SE
05/11:30am 25.5 SE 19 23 1016.4 - 0.0 - - - - - - -
05/11:00am 23.3 ESE 21 25 1016.6 - 0.0 - - - - - - -
05/10:30am 24.9 ESE 19 21 1016.9 - 0.0 - - - - - - -
05/10:00am 24.6 ESE 19 23 1017.0 - 0.0 - - - - - - -
05/09:30am 23.8 ESE 21 24 1017.0 - 0.0 - - - - - - -
05/09:00am 23.2 ESE 20 24 1017.0 S 0.6 Distant precip. Mostly cloudy 30 1 1.0 4 SE
05/08:36am 22.0 SE 21 23 1017.1 - 0.0 - - - - - - -
05/08:30am 22.5 E 17 20 1016.9 - 0.0 - - - - - - -
05/08:00am 24.2 ESE 19 21 1016.7 - 0.0 - - - - - - -
05/07:30am 23.5 SE 19 22 1016.4 - 0.0 - - - - - - -
05/07:00am 23.3 SE 17 19 1016.0 - 0.0 - - - - - - -
05/06:30am 22.9 ESE 14 17 1015.8 - 0.0 - - - - - - -
05/06:00am 22.8 E 14 17 1015.5 R 0.0 Distant precip. Mostly cloudy 20 1 1.2 8 SE
05/05:30am 23.0 ESE 17 21 1015.4 - 0.0 - - - - - - -
05/05:00am 22.1 ESE 20 25 1015.3 - 0.0 - - - - - - -
05/04:59am 22.1 ESE 20 25 1015.3 - 0.0 - - - - - - -
05/04:30am 21.5 SE 14 18 1015.1 - 0.0 - - - - - - -
05/04:00am 21.6 SE 22 26 1014.8 - 0.0 - - - - - - -
05/03:30am 22.9 ESE 17 21 1014.6 - 0.0 - - - - - - -
05/03:00am 23.0 SE 16 19 1014.8 - 0.0 - - - - - - -
05/02:30am 22.9 ESE 19 23 1015.0 - 0.0 - - - - - - -
05/02:00am 23.2 ESE 21 24 1015.1 - 0.0 - - - - - - -
05/01:30am 23.7 ESE 23 27 1015.0 - 0.0 - - - - - - -
05/01:00am 23.5 ESE 23 25 1015.3 - 0.0 - - - - - - -
05/12:30am 23.3 SE 25 29 1015.4 - 0.0 - - - - - - -
05/12:00am 23.1 ESE 29 32 1015.6 - 0.0 - - - - - - -
 
Date/Time
EST
Temp

°C
Wind Pressure Rain
since 9am
mm
Weather Cloud Vis
km
Sea
Height
m
Swell
Dir
 
Speed
knots
Gust
knots
hPa Trend Height
m
Period
s
Dir
04/11:30pm 23.8 ESE 24 29 1015.7 - 0.0 - - - - - - -
04/11:00pm 23.9 SE 21 26 1015.9 - 0.0 - - - - - - -
04/10:30pm 24.3 SE 19 23 1016.1 - 0.0 - - - - - - -
04/10:00pm 24.2 SE 19 24 1016.0 - 0.0 - - - - - - -
04/09:30pm 23.6 ESE 23 27 1016.0 - 0.0 - - - - - - -
04/09:00pm 24.0 ESE 19 23 1016.2 S 0.0 Distant precip. Mostly cloudy 30 2 - - -
04/08:30pm 23.9 ESE 17 20 1016.2 - 0.0 - - - - - - -
04/08:00pm 24.0 ESE 18 21 1016.0 - 0.0 - - - - - - -
04/07:30pm 24.1 ESE 17 21 1015.8 - 0.0 - - - - - - -
04/07:00pm 23.9 ESE 18 21 1015.5 - 0.0 - - - - - - -
04/06:30pm 23.9 ESE 18 21 1015.1 - 0.0 - - - - - - -
04/06:00pm 23.9 SE 18 21 1014.7 F 0.0 Distant precip. Partly cloudy 35 2 1.5 9 SE
04/05:30pm 24.1 SE 18 20 1014.5 - 0.0 - - - - - - -
04/05:00pm 24.3 SE 18 21 1014.4 - 0.0 - - - - - - -
04/04:30pm 24.6 SE 18 22 1014.3 - 0.0 - - - - - - -
04/04:00pm 25.1 SE 17 20 1014.2 - 0.0 - - - - - - -
04/03:30pm 24.9 SE 18 21 1014.2 - 0.0 - - - - - - -
04/03:00pm 24.8 SE 18 21 1014.2 R 0.0 Fine Mostly cloudy 35 2 1.6 8 SE
04/02:30pm 25.1 SE 18 22 1014.3 - 0.0 - - - - - - -
04/02:00pm 25.1 SE 20 23 1014.4 - 0.0 - - - - - - -
04/01:30pm 25.8 SE 19 23 1014.7 - 0.0 - - - - - - -
04/01:00pm 25.8 SE 19 23 1015.0 - 0.0 - - - - - - -
04/12:30pm 26.2 ESE 20 24 1015.2 - 0.0 - - - - - - -
04/12:00pm 26.2 ESE 20 25 1015.5 R 0.0 Fine Mostly cloudy 30 2 2.0 8 SE
04/11:30am 26.1 SE 19 24 1015.9 - 0.0 - - - - - - -
04/11:00am 25.4 SE 21 24 1016.3 - 0.0 - - - - - - -
04/10:30am 25.1 SE 20 24 1016.3 - 0.0 - - - - - - -
04/10:00am 24.7 SE 21 25 1016.5 - 0.0 - - - - - - -
04/09:30am 25.0 SE 22 26 1016.4 - 0.0 - - - - - - -
04/09:00am 24.8 SE 23 25 1016.3 S 0.0 Fine Mostly cloudy 30 2 2.0 8 SE
04/08:30am 24.4 SE 23 27 1016.0 - - - - - - - - -
04/08:00am 24.0 SSE 23 26 1015.6 - - - - - - - - -
04/07:30am 23.6 SSE 22 26 1015.4 - - - - - - - - -
04/07:00am 23.4 SSE 24 28 1015.3 - - - - - - - - -
04/06:30am 23.4 SSE 25 29 1015.0 - - - - - - - - -

Other Formats:

Comma delimited format used in spreadsheet applications
http://www.bom.gov.au/fwo/IDQ60701/IDQ60701.94299.axf

JavaScript Object Notation format (JSON) in row-major order
http://www.bom.gov.au/fwo/IDQ60701/IDQ60701.94299.json